COSMOS 1375

Satellite information

Favourite Embed

Satellite Type and Status

PAYLOADIN ORBIT

Key statistics

Satellite COSMOS 1375 at a glance.

Uptime

15840

Days in orbit

Revolutions

≈ 13.8

Per day

Orbit

LEO

Low Earth Orbit

Inclination

65.8

Latest

Satellite identification and parameters

Extended collection of information and parameters for COSMOS 1375.

Object identification

Identified? True

Debris? False

Object name: COSMOS 1375

International designator: 1982-055A

Object number (NORAD): 13259

Object ID (CCSDS): 13259

Country: COMMONWEALTH OF INDEPENDENT STATES (CIS)

Current information (Y/N): Y

RCS size: MEDIUM

Orbital parameters

Period: 103.99 minutes

Inclination: 65.8305 deg

SMA: 7325.225 km

Apoapsis: 969.498 km

Periapsis: 924.682 km

RAAN: 292.9991 deg

Eccentricy: 0.00305898

Argument of periapsis: 281.977 deg

Mean anomaly: 77.7869 deg

Mean motion: 13.84749809 rev/day

Mean motion (dot): 0.00000419 rev/day2

B* drag term: 0.00044376842 1/REarth

Two-line elements (TLE)

Creation date: Oct. 18, 2025, 2:17 a.m.

Reference frame: TEME

Reference center: EARTH

Epoch: Oct. 17, 2025, 11:47 p.m. UTC

TLE line 0: 0 COSMOS 1375

TLE line 1: 1 13259U 82055A 25290.99121088 .00000419 00000-0 44377-3 0 9998

TLE line 2: 2 13259 65.8305 292.9991 0030590 281.9770 77.7869 13.84749809180546

Live tracking on map

Real-time ground track for satellite COSMOS 1375.

In-orbit conjunctions

A list of the most updated potential collisions computed for object COSMOS 1375.

Target Orbit TCA Probability of collision Miss distance Type
FENGYUN 1C DEB SSO 2024-06-02 18:31:56 0.0002029964 62.0 (m) DEBRIS

Associated space launch

ASAT target satellite

COSMOS 1375 was lifted into orbit during the mission ‘Kosmos-3M | DS-P1-M 16’, on board a Kosmos-3M space rocket.

The launch took place on June 6, 1982, 5:10 p.m. from 132/2.

For more information about the launch, click the button.

Launch to space Kosmos-3M | DS-P1-M 16
Kosmos-3M | DS-P1-M 16

Agency: N/A

Status: Launch Successful

Launch date: June 6, 1982, 5:10 p.m. UTC

Rocket: Kosmos-3M

Launch pad: 132/2

Location: Plesetsk Cosmodrome, Russian Federation

...

Latest news about this satellite

There are no fresh news available about this satellite. Check back as we update our databases every day.


Newsletter sign-up

Weekly statistics, charts and insights to help you stay on top of the space industry.